Theta_e
292 292 292 292 292 292 292 293 295 296 298 298 299 300 303 305 307 309 311 312 312 312 311 310 309 308 306 305 305 305 305 304 303 303 303 303 303 300 299 299 299 297 296 295 295 295 295 295 295 294 294 293 293 293 293 293 293 293 293 293 292 292 292 292 291 290 290 289 288 288 287 287 287 287 287 287 288 289 289 289 289 288 288 288 288
292 291 291 291 291 291 291 292 293 293 295 295 295 296 298 299 299 301 305 309 311 311 311 310 310 309 308 306 305 305 305 304 304 303 302 302 302 300 298 297 296 296 296 295 295 295 295 295 295 294 293 293 293 293 293 293 293 293 293 292 292 292 292 291 291 290 290 290 289 289 288 287 286 286 286 286 287 288 288 288 288 288 287 287 286
290 290 291 290 290 290 290 290 291 291 292 293 293 293 294 294 295 298 301 303 307 309 310 310 309 309 309 307 305 304 304 304 304 302 301 300 299 298 296 295 295 295 295 295 294 294 294 294 294 294 293 293 293 293 293 293 293 293 293 292 292 292 292 291 290 290 290 290 290 289 289 288 287 286 286 286 286 287 288 288 288 287 287 286 286
290 290 290 290 289 289 289 289 289 290 290 291 291 291 291 291 292 295 297 299 301 304 307 309 309 308 307 306 305 304 303 303 303 302 301 300 299 298 297 296 296 295 295 295 294 294 294 294 294 294 293 293 292 293 293 293 293 292 292 292 292 291 291 291 290 290 290 291 290 290 290 290 289 288 287 286 285 286 287 287 287 287 286 286 285
289 288 289 289 289 288 288 288 288 288 289 289 289 290 290 290 290 291 293 295 297 299 301 304 307 308 306 304 303 303 302 301 301 300 300 300 299 299 299 298 297 296 295 295 294 294 294 294 294 294 293 293 292 293 293 293 292 292 292 292 292 291 291 291 290 290 290 291 291 291 291 291 292 290 287 286 285 285 286 286 286 286 285 285 285
288 288 288 289 288 288 287 287 287 287 287 287 288 288 289 289 289 289 289 291 293 295 297 300 302 304 305 304 303 302 301 300 301 301 300 300 300 300 300 299 298 296 295 295 294 294 294 294 294 294 293 293 292 292 293 293 292 292 292 292 292 291 291 291 291 290 290 290 291 292 292 291 291 290 288 287 285 285 285 285 285 285 285 285 285
287 287 287 287 287 287 287 287 286 286 286 286 287 287 287 288 288 288 288 287 288 290 293 295 297 299 300 302 303 302 302 301 301 301 300 300 299 299 299 298 296 296 295 294 294 293 294 294 294 294 294 293 293 292 292 292 292 292 292 292 291 291 291 291 291 290 290 290 290 291 291 291 290 289 289 288 285 284 285 284 284 284 284 284 284
288 287 286 287 287 286 286 286 286 286 285 285 286 286 286 286 286 287 287 287 286 286 288 290 291 293 295 297 299 300 301 301 301 300 300 299 299 298 298 297 296 296 294 294 293 293 294 294 294 294 294 293 293 292 292 292 292 292 291 291 291 291 291 291 291 290 290 290 290 290 291 290 289 289 290 289 288 286 284 284 284 283 283 284 284
288 287 287 287 287 286 286 285 285 285 285 285 285 285 285 285 285 285 286 286 286 285 285 286 287 288 290 291 294 296 297 299 300 300 300 299 299 298 297 297 296 296 295 294 294 293 293 294 294 294 294 293 293 292 292 292 292 292 291 291 291 291 291 291 291 290 290 290 290 290 290 290 289 289 289 289 290 288 285 284 284 283 283 283 283
288 288 288 287 286 286 286 285 285 285 285 284 284 284 284 284 284 285 284 284 284 284 285 285 285 285 286 286 288 291 293 295 297 298 299 299 298 298 297 296 296 296 296 296 295 294 294 293 293 294 294 293 293 292 293 292 292 292 291 291 291 291 291 291 291 291 290 290 290 290 290 290 289 289 289 288 289 289 288 286 284 283 283 283 283
287 288 288 287 286 286 286 285 285 285 284 284 284 284 284 284 284 284 284 283 283 283 284 284 284 284 284 284 284 286 288 290 293 295 297 297 298 297 297 296 296 296 296 295 295 294 294 293 293 293 294 293 293 293 293 292 292 292 292 291 291 291 291 291 291 291 291 290 290 290 290 289 289 289 289 289 289 290 289 287 285 284 284 284 283
287 287 287 287 286 286 286 285 285 285 285 284 284 284 283 284 284 283 283 283 282 282 282 283 283 283 284 284 284 284 285 286 288 290 293 294 295 297 297 297 296 295 295 294 294 294 294 293 293 293 293 293 293 293 293 292 292 292 292 291 291 291 291 291 291 291 291 290 290 290 290 289 289 289 289 289 289 289 290 289 286 284 284 285 283
286 286 287 287 286 286 285 285 285 284 284 284 284 283 283 283 283 283 283 283 282 282 282 282 282 282 283 283 283 284 284 284 285 287 289 290 292 294 295 296 296 295 295 294 294 293 293 293 293 293 293 293 293 293 293 293 292 292 292 291 291 291 291 291 291 290 290 290 290 290 290 289 289 289 289 289 289 289 290 290 288 285 285 285 283
286 286 286 287 286 286 285 285 285 284 284 284 284 283 283 283 282 283 283 282 282 281 281 281 281 281 282 282 283 283 283 284 284 285 286 287 288 290 292 294 295 296 295 294 294 293 293 293 293 293 292 293 293 293 292 292 292 292 292 291 291 291 291 291 291 290 290 290 290 290 290 290 289 289 290 289 289 289 289 290 289 285 285 285 283
286 286 286 287 286 286 285 285 284 284 283 283 283 283 282 282 282 282 282 282 281 281 281 280 280 280 281 281 281 282 283 283 283 284 285 285 286 287 288 290 292 294 295 295 294 293 293 293 292 292 292 292 292 292 292 292 292 292 292 292 291 291 291 291 291 290 290 290 290 290 290 289 289 289 289 289 289 289 289 290 289 286 285 285 283
285 286 286 287 286 286 285 284 284 284 283 283 283 283 282 281 281 281 281 282 281 281 280 280 280 280 280 280 281 281 281 282 283 283 283 284 284 285 286 288 289 290 292 294 294 294 294 293 292 292 292 292 292 292 292 292 292 292 292 292 291 291 291 290 290 290 290 290 290 290 290 289 289 289 289 289 289 289 289 289 289 286 285 285 283
285 285 286 286 286 286 285 284 284 283 283 283 282 282 282 281 281 280 281 281 281 280 280 280 279 279 280 280 280 280 280 281 282 282 283 283 283 284 286 287 288 289 290 291 292 293 294 293 293 292 292 292 291 291 291 291 291 291 291 291 291 291 291 291 290 290 290 290 290 290 290 289 289 289 289 289 289 289 289 289 288 287 286 286 285
285 285 285 286 286 286 285 284 283 283 283 282 282 282 281 281 280 280 280 280 280 280 279 279 279 279 279 279 279 279 280 280 281 282 282 282 283 283 284 285 287 288 288 289 290 291 292 293 293 292 292 292 292 291 291 290 290 290 290 291 291 291 291 291 290 290 290 290 290 290 289 289 289 289 289 289 288 288 288 288 288 287 286 287 286
285 285 285 285 286 286 285 283 283 283 282 282 282 282 281 280 280 279 280 280 280 279 279 279 279 278 278 278 278 278 279 279 280 281 281 282 282 283 283 284 285 286 287 288 289 289 290 291 292 292 292 292 292 292 291 291 290 290 290 290 290 290 290 290 290 290 290 290 290 289 289 289 289 289 288 288 288 288 287 287 287 287 286 286 286
285 284 284 285 285 285 284 283 283 282 282 282 282 281 281 280 280 279 279 279 279 279 278 278 278 278 278 278 278 278 278 278 279 280 280 281 282 282 283 283 283 284 285 286 287 288 289 290 290 291 291 291 291 291 291 290 290 290 290 289 290 290 290 290 290 290 290 289 289 289 289 289 289 288 288 288 287 287 287 287 287 287 286 285 286
285 284 284 284 285 285 284 283 282 282 282 282 281 281 281 280 280 279 279 279 279 279 278 278 278 278 277 277 277 277 277 278 278 279 280 280 281 282 282 282 282 282 283 284 285 286 287 288 289 289 290 290 290 290 290 290 290 290 290 289 289 289 289 289 289 289 290 289 289 289 289 289 288 288 287 287 287 287 287 286 286 286 285 285 285
284 284 284 284 284 284 284 283 282 282 282 282 281 281 281 280 280 279 279 279 279 278 278 278 277 277 277 277 277 277 277 277 278 278 279 280 280 281 281 281 281 281 282 282 283 284 285 287 288 288 289 289 289 290 290 290 289 289 289 289 289 289 289 289 289 289 289 289 289 289 289 289 288 288 287 287 287 286 286 286 286 285 285 285 285
283 284 284 285 284 284 284 283 282 282 282 281 281 281 281 280 280 279 279 279 279 279 278 278 277 277 277 277 277 277 277 277 277 278 278 278 279 279 279 280 280 281 281 281 282 283 283 285 286 287 288 288 288 289 289 289 289 289 289 289 289 289 288 289 289 289 289 289 289 289 288 288 288 288 287 287 286 286 286 285 285 285 285 284 284
283 283 284 284 284 284 283 283 282 282 282 281 281 281 281 280 280 280 280 279 279 279 278 278 278 277 277 277 276 276 276 276 276 277 277 277 277 278 278 278 279 280 280 281 281 282 283 283 284 285 286 287 287 288 288 288 289 289 289 289 289 289 289 288 288 288 288 288 288 288 288 288 288 287 287 286 286 285 285 285 285 285 284 284 284
282 282 283 284 284 284 283 283 282 282 282 281 281 280 280 280 280 280 280 279 279 279 279 278 278 277 277 276 276 276 276 276 276 276 276 276 276 276 277 277 278 279 280 280 281 281 282 283 283 284 285 286 287 287 287 288 288 288 288 288 288 288 288 288 288 288 288 288 288 288 288 288 287 287 286 286 285 285 285 285 284 284 284 283 283
282 282 282 283 283 283 283 282 282 281 281 281 281 280 280 280 280 280 279 279 279 279 278 278 278 277 277 276 276 276 276 275 275 275 275 275 275 275 276 277 277 278 279 280 280 280 281 282 282 283 284 285 286 286 287 287 287 287 288 288 288 288 288 288 288 288 288 288 288 288 288 288 287 287 286 286 285 285 284 284 284 284 283 283 282
281 281 282 282 283 283 282 282 281 281 281 280 280 280 280 280 279 279 279 279 279 279 278 278 277 277 277 276 276 276 275 275 274 274 274 274 274 275 276 276 277 277 278 279 279 279 280 280 281 282 283 283 284 285 286 286 286 287 287 287 287 287 287 287 288 288 287 288 288 288 287 287 287 287 286 286 285 285 284 284 284 283 283 282 282
281 281 282 282 282 282 282 281 281 281 280 280 280 280 279 279 279 279 279 279 279 278 278 278 277 277 277 276 276 276 275 274 274 273 273 274 274 275 275 275 275 276 277 277 278 278 279 279 280 280 281 282 283 283 284 285 285 286 286 286 286 286 287 287 287 287 287 287 287 287 287 287 287 287 287 286 286 285 284 283 283 283 282 282 281
281 281 281 282 281 282 282 281 281 280 280 280 279 279 279 279 279 279 279 279 278 278 278 278 277 277 277 276 276 275 274 273 273 273 273 274 274 274 274 274 275 275 275 276 277 277 278 278 279 279 280 280 281 282 282 283 284 285 285 285 286 286 286 286 286 286 287 287 287 287 287 287 287 287 287 286 286 285 284 283 283 282 282 281 280
281 281 281 281 281 282 281 281 281 280 280 280 279 279 279 279 279 278 278 278 278 278 278 278 277 277 276 276 275 274 273 273 273 273 273 274 273 273 273 273 274 274 274 275 276 276 277 277 278 278 278 279 279 280 281 281 282 283 284 284 284 285 285 285 285 286 286 286 286 286 286 286 286 286 286 286 285 285 284 284 283 283 282 281 280
281 281 281 281 281 281 281 280 280 280 280 279 279 279 279 278 278 278 278 278 278 278 278 278 277 276 276 275 274 274 274 274 273 273 273 273 272 272 272 272 273 273 273 274 275 276 277 277 277 277 277 278 278 278 279 280 280 281 282 282 283 283 284 284 285 285 285 285 285 285 285 285 285 285 285 285 285 284 284 283 283 283 282 282 280
280 280 280 280 280 280 280 280 280 280 279 279 279 279 278 278 278 278 277 277 278 277 277 277 276 276 275 275 274 274 274 274 273 273 272 272 272 272 272 272 272 272 273 273 274 275 276 276 276 277 277 277 277 277 278 279 279 280 281 281 281 282 283 283 284 284 284 284 284 284 284 284 284 284 284 284 283 283 283 283 282 282 282 282 282
279 279 279 279 280 280 280 280 280 280 279 279 279 278 278 278 277 277 277 277 277 277 277 276 276 275 275 274 274 274 274 273 273 272 272 271 271 271 271 271 271 272 272 273 273 274 275 275 276 276 276 276 276 276 277 278 279 279 280 280 281 282 282 282 283 283 283 283 283 283 283 283 283 283 283 283 282 282 282 282 281 281 281 281 281
279 279 279 279 279 280 280 280 280 279 278 278 278 278 277 277 277 277 276 276 276 276 276 276 275 275 275 274 274 274 273 273 272 272 271 271 270 270 270 271 271 271 271 272 273 274 275 275 276 275 275 275 275 276 276 277 278 278 279 280 280 281 282 282 282 282 282 282 282 282 282 282 282 282 282 282 281 281 280 280 280 280 280 280 280
279 278 279 279 279 279 279 279 278 278 278 278 278 277 277 276 276 276 275 275 275 276 276 275 275 275 274 274 274 273 273 272 271 271 271 270 270 270 270 270 270 271 271 272 273 274 275 275 275 275 275 275 275 275 276 277 277 278 278 279 280 280 281 281 281 281 281 281 281 281 281 281 281 280 280 280 280 280 279 279 278 278 278 278 278
278 278 279 279 279 279 279 278 278 278 277 277 277 277 276 276 276 275 274 274 275 275 275 275 275 275 274 274 273 273 272 271 271 270 270 269 269 269 269 269 270 270 271 271 273 273 274 275 275 275 275 274 274 275 275 276 277 277 278 278 279 280 280 281 280 280 280 280 280 280 280 280 280 279 279 279 279 279 278 278 278 277 277 277 277
278 278 278 277 277 277 277 277 277 277 277 277 276 276 275 275 274 274 274 274 273 274 274 275 274 274 273 273 273 272 271 271 270 270 269 269 269 269 269 269 269 270 270 271 272 273 274 274 274 274 274 274 274 274 275 275 276 277 277 278 279 280 280 280 279 279 279 279 279 279 279 279 279 278 278 278 278 278 277 277 277 276 276 276 276
278 277 276 276 276 276 276 276 276 276 276 276 275 275 274 274 273 273 273 273 273 273 274 274 273 273 272 272 272 271 271 270 270 269 269 268 268 268 268 269 269 269 270 271 272 273 273 274 274 274 274 274 273 273 274 275 275 276 277 278 278 279 279 279 278 278 277 277 277 277 277 277 277 277 277 277 277 277 276 276 276 275 274 274 274
277 276 275 275 275 275 275 275 275 275 275 274 274 273 273 273 272 272 272 272 272 273 273 272 272 272 271 271 271 271 270 270 269 268 268 268 268 268 268 268 269 269 270 271 272 273 273 273 273 273 273 273 273 273 273 274 274 275 276 277 278 278 277 277 277 276 276 275 275 275 276 276 276 276 276 276 276 276 276 275 275 274 273 273 273
276 275 274 274 274 275 274 274 274 273 273 273 272 272 272 272 271 271 271 272 272 272 271 271 271 271 271 271 270 270 269 269 268 268 267 267 267 268 268 268 269 269 270 271 272 272 272 272 272 273 273 272 272 272 272 273 273 274 275 277 277 277 276 276 276 275 274 274 274 274 274 275 275 275 275 276 276 276 275 275 274 274 273 273 273
275 274 274 273 274 274 273 273 273 272 272 272 271 271 271 270 270 271 271 271 271 270 270 270 270 270 270 270 270 269 269 268 267 267 267 267 267 267 268 268 268 269 270 271 271 271 271 271 272 272 272 272 271 271 272 272 273 273 275 276 276 276 276 276 275 274 274 273 273 273 274 274 274 274 274 276 276 276 275 274 274 274 273 273 273
275 274 273 273 273 273 273 272 272 271 271 271 271 270 270 270 270 270 270 270 270 270 270 270 270 270 269 269 269 268 268 267 267 266 266 266 267 267 267 268 268 269 270 270 270 271 271 271 271 271 271 271 271 271 271 271 272 272 274 275 276 276 276 276 275 274 273 273 273 273 273 274 274 274 274 275 277 276 275 274 274 273 273 273 273
274 274 273 272 273 273 272 272 271 271 270 270 270 269 269 269 269 269 269 269 269 270 270 269 269 269 268 268 268 267 267 266 266 266 266 266 266 267 267 268 268 269 270 270 271 271 271 271 271 271 271 271 271 270 270 271 271 272 273 274 275 275 276 275 275 274 274 273 273 273 273 274 274 274 275 275 276 277 275 274 273 273 273 273 273
274 273 272 272 272 272 271 271 270 270 269 269 269 269 269 269 269 269 269 269 269 269 269 268 268 268 267 267 267 266 266 266 265 266 266 266 267 267 267 268 269 269 270 270 271 271 271 271 271 271 271 271 271 270 270 270 271 271 272 272 274 275 275 275 274 274 274 273 273 273 274 274 274 274 275 275 276 277 276 274 274 274 273 273 272
273 272 272 272 271 271 270 270 270 269 269 268 268 268 268 268 269 269 269 269 269 268 268 267 267 267 267 266 266 266 265 265 265 266 266 266 267 267 268 268 269 269 270 270 271 271 271 271 271 271 271 271 270 270 270 270 270 271 271 271 272 274 275 275 274 274 273 273 273 273 274 275 275 275 275 276 276 276 276 275 274 274 273 272 272
272 271 271 270 270 270 270 269 269 268 268 268 268 268 268 268 268 269 268 268 267 267 266 266 266 266 266 266 266 265 266 266 266 266 266 267 267 267 268 268 269 269 270 270 270 270 270 270 270 270 271 270 270 270 269 269 270 270 270 271 271 272 274 274 274 274 273 273 273 273 273 274 274 275 275 275 275 276 276 275 274 274 273 272 272
271 270 270 270 269 269 269 268 268 268 268 268 268 268 268 268 268 268 267 266 266 266 265 265 265 265 265 265 265 266 266 265 266 266 266 266 267 267 268 268 268 269 269 269 270 270 270 270 270 270 270 270 270 269 269 269 269 269 270 270 270 271 272 273 273 273 273 273 273 273 273 273 274 275 275 275 275 275 275 275 274 274 273 273 272
270 269 269 269 269 269 268 268 267 267 267 267 267 268 268 268 267 267 266 265 265 265 264 264 264 265 265 265 265 265 265 265 265 266 266 266 267 267 267 267 268 268 268 268 268 269 269 269 269 270 270 270 269 270 269 269 269 269 269 269 269 270 271 271 272 272 272 273 273 273 273 273 273 274 274 274 274 274 274 274 274 274 273 273 273
269 269 268 268 268 268 267 267 267 267 267 267 267 267 267 267 266 266 265 264 264 264 264 264 264 264 265 265 265 265 265 265 265 265 265 266 266 266 266 266 266 267 267 267 267 267 268 268 268 269 269 269 269 269 269 269 268 268 268 268 269 269 269 270 270 271 272 272 272 273 273 273 273 273 273 273 273 273 273 273 273 273 273 273 273
268 268 268 268 267 267 266 266 267 266 267 267 267 267 266 266 266 265 265 264 264 263 263 264 264 264 264 264 264 264 264 264 264 265 265 265 265 266 266 266 266 267 267 267 267 267 268 268 268 268 268 268 268 268 268 268 268 268 268 268 268 268 268 269 269 270 271 271 271 272 272 272 272 272 272 272 272 272 272 272 272 272 272 272 272
268 267 268 267 266 266 266 266 266 266 266 267 266 266 266 265 265 265 264 264 263 263 263 264 264 264 264 263 263 264 264 264 264 264 265 265 265 265 266 266 267 267 267 267 267 268 268 269 269 269 269 268 268 268 268 268 269 269 269 268 268 267 267 268 268 269 270 270 271 271 271 271 272 271 271 271 271 271 271 271 271 271 271 271 271
Wind_Speed
16 20 22 23 25 25 22 21 22 20 21 23 25 25 23 21 18 11 14 23 29 31 33 32 29 27 25 26 27 30 33 34 35 38 41 43 44 42 41 40 39 39 40 39 38 34 27 22 23 26 27 24 23 23 22 21 20 20 18 17 17 16 14 14 15 14 12 10 7 6 5 5 7 7 6 6 7 8 8 9 9 10 10 11 12
15 19 22 24 26 26 25 23 24 24 22 23 25 27 27 28 30 28 18 11 24 31 31 32 35 35 32 33 34 35 36 38 38 40 42 43 44 42 40 39 38 38 40 41 40 39 33 26 26 30 30 28 26 24 24 22 22 22 20 18 18 18 16 15 17 16 13 11 9 7 5 4 6 7 6 7 8 8 8 9 9 10 10 11 12
15 17 21 24 26 27 26 25 25 24 23 24 25 26 27 29 31 30 28 21 10 21 29 32 34 36 37 36 33 31 32 37 38 35 35 38 38 38 37 36 36 35 37 39 40 40 39 34 33 34 34 33 29 26 25 24 24 24 23 21 19 18 16 16 20 19 14 13 11 6 5 5 5 7 8 8 9 8 9 10 10 10 11 12 12
15 16 19 23 25 26 27 26 26 25 25 25 26 26 25 27 31 30 27 27 22 11 13 25 30 31 31 27 23 21 20 24 29 27 29 34 36 36 37 38 40 39 38 41 42 40 38 36 37 38 38 38 34 28 27 27 26 27 26 23 22 20 17 17 21 22 18 13 10 6 7 7 4 8 11 9 9 9 9 10 10 11 11 12 12
15 15 17 20 23 25 27 27 26 26 26 25 25 25 24 24 27 30 29 27 26 23 17 11 18 25 27 21 17 17 15 15 19 20 23 32 37 38 41 43 44 44 43 45 45 43 39 36 37 39 40 40 37 32 29 29 28 29 28 26 24 22 20 18 20 24 24 19 13 7 6 6 5 9 12 7 9 9 9 10 10 11 12 12 12
14 15 16 19 22 23 25 27 27 27 26 25 24 24 25 25 25 28 30 31 30 26 23 19 11 10 19 23 21 20 19 18 21 24 26 33 39 40 44 47 46 47 46 45 44 43 42 38 36 37 38 40 39 34 30 29 29 29 30 28 27 25 22 19 19 23 26 25 22 13 6 5 3 11 10 4 7 8 8 10 10 11 12 12 12
11 14 16 18 20 22 23 25 26 26 26 25 25 25 26 26 26 27 27 30 33 31 26 23 20 16 10 12 19 22 22 21 26 32 29 29 33 35 38 40 41 45 46 44 43 43 43 39 37 36 36 39 40 36 32 31 31 32 33 31 29 27 25 22 19 21 23 25 28 22 13 8 3 9 8 4 6 6 8 10 10 12 13 13 13
9 11 13 15 18 19 20 22 23 23 24 25 25 26 26 26 27 26 25 26 29 32 31 28 25 22 20 16 11 12 15 15 19 26 25 21 25 30 34 36 38 41 44 44 43 42 42 40 38 37 35 36 38 38 35 33 32 33 35 33 31 29 28 25 21 22 23 22 26 24 16 11 9 8 7 6 6 5 7 9 10 12 13 13 14
10 10 11 13 15 16 16 18 19 20 22 24 24 24 25 26 27 27 26 26 27 29 30 30 29 26 23 22 18 15 14 14 13 16 18 18 21 24 26 33 38 40 43 45 44 42 43 42 39 37 35 34 36 37 37 36 35 35 36 35 33 30 30 29 25 23 24 22 23 23 18 15 13 11 9 8 7 5 6 8 10 13 12 14 16
10 10 12 13 14 14 14 14 16 18 19 20 22 22 24 25 27 28 27 27 27 28 28 28 29 29 28 26 22 20 18 16 14 12 12 14 19 21 21 26 33 39 44 46 45 44 44 44 41 40 38 35 35 36 36 35 35 37 40 40 38 33 30 31 29 25 23 23 23 23 21 18 14 12 12 12 10 7 6 8 14 15 12 14 17
9 9 11 13 14 14 14 15 16 16 18 19 20 21 22 24 26 26 26 27 27 27 27 26 26 26 26 26 25 23 21 18 16 14 13 11 13 16 19 23 27 34 40 43 45 46 45 44 44 44 42 38 35 34 33 32 33 36 40 43 42 38 33 32 32 29 25 24 24 24 23 23 19 16 16 16 13 10 7 8 14 16 13 14 18
9 8 9 10 12 12 13 15 15 16 18 18 18 20 20 22 24 25 26 27 27 26 26 26 24 23 22 22 22 22 22 21 18 16 15 15 14 13 15 18 20 25 30 35 40 41 41 42 43 44 43 41 39 36 34 31 30 31 35 40 41 39 37 33 32 32 29 26 25 25 24 24 24 20 18 18 17 15 12 8 12 15 12 11 16
8 8 7 8 10 11 12 14 14 16 18 18 18 18 19 19 21 23 23 25 26 26 26 26 24 23 22 21 20 19 20 20 19 17 16 16 16 16 15 16 17 19 22 27 32 35 38 40 41 42 43 43 42 40 39 37 33 30 31 35 38 39 40 38 34 35 35 31 27 26 24 23 23 22 20 19 19 18 15 11 11 15 12 10 15
7 6 6 7 9 10 11 12 13 15 17 18 18 19 19 19 20 21 21 21 23 24 25 25 24 23 22 21 20 19 19 18 17 17 17 17 17 17 18 18 19 19 19 21 24 29 36 40 40 41 43 43 41 38 37 37 35 31 29 31 35 38 41 41 38 37 37 35 30 27 26 25 23 22 22 20 20 20 18 15 12 12 12 12 14
7 7 7 8 10 10 11 12 12 14 16 16 17 18 20 20 21 22 21 20 21 22 23 24 24 24 23 21 21 20 19 17 16 16 17 18 18 18 19 19 20 22 22 21 21 23 29 36 39 40 42 42 40 38 37 37 35 32 29 28 31 34 36 37 39 38 37 38 35 31 29 27 25 23 23 22 21 22 21 19 15 10 8 10 11
8 7 7 9 11 11 11 12 13 14 15 15 15 15 17 18 20 21 21 20 20 21 21 22 22 23 23 22 22 21 20 19 18 17 17 18 19 18 19 19 20 21 22 23 25 25 27 30 34 39 41 40 39 39 39 39 38 35 33 31 29 30 31 32 35 36 38 40 39 36 31 29 28 26 25 24 23 23 22 21 21 16 10 7 7
8 8 8 9 12 13 11 12 14 14 14 15 15 15 15 16 17 18 19 18 19 20 20 20 20 21 21 22 23 23 22 21 20 19 19 19 18 18 17 17 18 19 20 22 24 27 29 30 33 36 39 40 40 39 39 38 38 38 36 34 32 31 31 31 31 31 35 39 40 40 34 31 31 29 28 27 24 24 23 23 23 22 17 9 6
8 9 10 10 12 13 11 11 13 14 14 14 15 14 14 15 15 16 16 16 17 18 18 18 19 19 20 21 23 23 22 22 21 21 20 19 18 18 17 17 16 17 18 20 22 25 27 30 32 35 37 39 42 43 43 41 38 38 38 37 35 32 31 32 32 30 32 34 37 40 37 33 33 32 30 29 27 26 25 25 23 23 23 17 9
8 8 9 10 12 13 10 10 12 14 13 14 14 13 13 14 14 15 15 14 14 15 16 17 17 17 18 20 21 22 23 23 22 21 21 20 19 18 17 17 16 16 16 17 19 22 25 27 30 33 35 37 40 42 44 44 43 41 40 39 38 35 32 32 32 31 31 31 33 36 37 35 34 33 32 31 31 30 27 27 26 24 25 24 18
8 8 9 10 12 13 11 10 13 14 14 14 15 15 14 14 14 14 15 15 14 14 15 15 16 17 19 20 20 21 22 22 22 22 22 21 20 19 17 17 16 16 16 16 16 18 21 24 27 30 33 35 37 39 40 42 43 43 42 42 41 40 37 35 35 34 32 31 32 34 36 37 35 34 34 33 33 32 30 29 28 26 25 25 24
10 9 9 11 12 13 12 11 13 14 15 16 17 17 16 16 16 15 15 15 16 16 16 15 16 17 19 20 20 21 21 21 22 22 22 21 20 19 18 18 17 17 17 17 18 17 18 21 24 27 30 33 35 36 38 38 40 42 43 42 41 40 40 40 39 37 36 34 34 34 36 38 37 34 35 35 35 34 32 30 29 27 25 25 25
12 11 10 11 12 14 14 13 13 15 16 17 18 18 17 18 18 18 17 17 17 17 16 16 15 16 18 19 20 20 20 21 21 21 21 21 21 20 20 20 20 19 18 18 18 18 18 19 21 24 27 30 34 35 36 35 37 40 42 41 41 40 39 41 40 39 39 37 36 36 36 38 39 37 36 36 36 35 34 32 30 28 26 26 27
14 12 12 13 13 14 16 14 14 15 16 17 18 18 18 18 18 19 20 20 19 18 17 17 16 16 18 18 19 20 20 20 20 19 19 20 21 22 22 22 21 21 20 19 19 18 18 18 20 22 23 26 30 33 34 35 36 38 39 41 42 41 40 40 39 39 40 39 37 37 37 37 38 37 37 36 36 36 36 34 32 30 28 27 27
14 14 14 15 15 15 16 14 13 15 18 19 19 18 19 19 19 19 20 22 22 21 20 20 20 19 18 17 19 20 19 19 20 20 20 21 21 22 22 22 22 22 21 20 19 19 18 18 19 20 22 23 25 27 30 33 36 37 39 40 42 42 41 41 41 40 40 39 38 38 38 38 38 38 38 37 37 37 36 36 34 31 30 28 27
16 16 15 15 15 16 18 17 16 18 22 23 22 20 19 20 20 21 21 22 23 23 23 23 24 23 20 19 20 19 19 20 21 22 21 21 21 21 21 21 21 22 21 20 19 19 18 18 18 19 20 21 23 24 26 29 33 36 38 39 40 40 39 40 41 42 42 40 40 40 40 39 39 39 38 38 39 39 37 37 36 33 31 30 28
18 18 16 15 16 18 20 19 19 22 24 25 24 23 22 20 21 21 21 23 24 24 24 24 23 24 23 22 22 21 20 21 23 23 22 21 21 21 21 21 21 21 21 20 20 19 19 18 18 18 19 20 21 22 25 27 29 32 35 38 38 38 38 39 39 40 42 42 41 41 41 40 40 40 41 40 41 41 39 38 37 35 33 31 29
19 17 17 17 17 18 20 21 22 24 24 24 24 25 24 23 22 22 21 23 25 24 24 23 22 23 22 22 23 24 22 22 23 24 23 21 21 20 20 21 21 21 21 21 20 20 20 20 20 19 19 19 20 21 24 25 26 27 30 33 35 35 36 38 38 39 40 41 42 42 42 41 41 43 44 43 42 41 40 40 39 37 35 33 31
20 18 18 18 16 17 20 22 23 24 23 23 23 23 24 24 24 24 24 25 25 25 25 23 21 21 21 22 23 23 23 22 23 24 23 22 21 20 20 21 21 22 22 21 21 21 21 21 20 20 19 19 19 20 22 24 25 26 27 29 32 33 35 36 37 37 39 40 42 42 42 43 43 45 47 46 44 43 41 40 40 39 37 35 33
21 19 18 17 16 17 21 24 25 25 24 23 23 23 23 23 24 24 25 26 26 26 26 24 22 22 22 22 22 23 25 24 21 21 21 21 21 22 22 21 21 21 22 22 22 22 22 22 21 21 20 20 21 22 22 22 23 24 25 26 29 32 33 34 34 35 36 38 40 41 42 43 44 46 47 47 46 46 44 43 42 41 39 37 34
19 18 18 17 16 19 23 26 26 26 24 23 23 24 24 24 25 26 26 26 26 26 26 25 24 23 22 23 25 27 26 23 19 19 20 21 23 24 23 22 22 22 22 23 22 22 21 21 21 21 21 21 22 24 24 22 22 23 24 24 25 29 31 32 34 34 35 36 38 40 41 42 43 44 45 46 46 47 47 47 46 45 44 42 37
19 18 18 17 17 21 24 25 26 27 26 24 24 24 24 24 26 26 26 26 26 26 25 25 24 24 24 27 28 26 23 21 20 19 19 21 23 24 23 23 23 22 22 21 21 21 21 21 21 22 23 22 23 24 24 22 21 23 24 25 26 27 29 31 32 33 33 34 36 38 40 40 40 41 43 45 46 46 47 47 48 49 50 49 44
19 19 19 19 19 21 24 25 26 27 26 25 25 25 24 24 26 26 26 26 26 27 26 23 22 23 25 27 26 23 22 23 21 19 19 21 23 24 23 23 23 23 22 21 21 21 21 21 21 22 23 23 23 23 22 21 21 22 23 25 26 27 28 30 31 31 32 32 32 34 36 38 38 40 41 42 43 45 46 47 48 49 51 51 50
20 20 20 21 21 24 27 27 25 24 23 24 25 25 24 25 26 26 25 25 26 27 25 22 21 23 24 24 23 23 24 22 20 19 19 20 22 23 23 22 23 23 22 22 22 22 22 21 21 22 22 22 23 22 20 20 20 21 22 23 25 26 27 28 30 31 31 31 31 31 32 35 37 38 39 40 41 42 44 45 46 47 49 50 49
20 20 20 22 26 29 29 27 22 20 20 23 24 24 24 26 27 25 24 25 28 28 25 23 23 24 24 23 22 22 22 20 19 19 19 19 21 22 22 22 22 22 22 22 22 22 21 21 21 22 21 21 22 21 19 19 19 20 20 21 24 26 27 28 29 30 30 30 31 30 30 32 34 36 38 39 40 40 40 42 43 43 45 47 45
20 21 22 25 28 28 26 23 20 19 21 23 24 24 25 26 24 23 25 28 30 29 27 26 25 23 22 22 21 20 19 17 18 19 18 18 20 21 22 21 21 21 21 22 21 21 21 20 21 21 21 21 22 19 18 18 18 19 19 20 23 26 28 29 29 29 29 29 30 31 31 31 33 35 37 39 39 39 38 39 40 40 41 43 42
20 21 22 25 26 24 24 24 23 24 25 25 26 26 26 24 21 22 26 29 29 29 28 27 25 22 21 21 20 19 17 16 17 18 18 19 20 20 21 20 21 21 21 21 21 20 20 20 20 20 20 22 22 19 17 18 18 18 18 19 21 23 26 27 26 26 27 28 28 29 30 32 33 35 37 38 40 40 38 38 39 39 39 40 39
21 21 22 24 25 25 27 28 28 29 29 28 27 26 24 24 24 24 26 27 28 30 29 25 22 20 20 21 19 18 16 16 16 17 19 20 20 20 20 19 20 21 20 20 20 20 19 19 18 18 18 20 19 17 16 17 17 17 17 17 19 20 22 24 23 22 24 26 27 28 29 31 33 35 36 37 38 38 38 38 39 38 36 37 37
22 22 24 26 27 28 30 29 28 28 28 26 25 24 24 26 27 26 26 27 29 28 25 20 18 19 20 21 19 17 16 16 17 18 19 20 20 20 19 19 19 20 21 20 20 19 18 17 16 16 15 16 17 17 16 16 16 16 16 17 18 18 18 19 19 19 20 22 24 25 27 29 32 34 34 32 33 36 37 36 37 37 34 33 35
25 27 28 29 30 29 26 25 25 26 26 25 25 26 26 26 26 27 27 28 27 22 17 16 18 21 22 21 18 16 15 16 18 19 19 20 20 20 19 19 19 19 20 20 18 18 17 15 15 15 14 14 16 17 17 16 16 16 15 17 18 17 17 18 18 17 17 18 19 21 24 28 29 31 31 28 28 33 37 36 35 35 34 34 35
29 31 30 29 28 24 21 23 25 25 27 27 27 27 26 26 27 27 26 24 21 17 17 20 23 23 21 19 17 16 16 18 19 19 19 20 19 19 18 19 19 19 18 18 17 16 16 16 15 14 13 14 15 17 17 16 15 15 14 15 15 16 16 17 18 17 15 15 17 18 22 25 26 26 27 26 26 30 35 35 33 34 37 37 35
29 28 28 28 26 24 24 25 25 26 27 27 26 26 27 28 26 24 22 21 20 20 20 22 23 21 20 19 19 19 18 19 19 19 19 19 18 18 18 19 19 18 17 17 16 16 15 15 14 13 12 13 14 15 16 16 14 13 13 13 12 16 18 17 17 16 14 14 16 18 19 23 24 23 24 24 24 26 31 33 34 35 36 36 33
30 27 28 29 29 28 28 27 26 27 27 26 26 27 27 26 23 22 22 22 22 21 20 20 20 19 19 20 20 19 19 19 18 18 18 19 18 18 18 18 18 17 17 16 16 14 13 13 13 12 11 11 12 13 14 15 14 11 11 12 8 10 18 19 18 17 14 13 14 17 18 20 22 21 21 23 23 23 26 30 33 32 30 30 30
30 28 30 33 30 26 26 27 27 27 25 25 27 27 25 23 22 23 24 23 22 20 18 18 18 18 19 20 20 20 19 18 18 17 17 18 18 17 17 17 17 16 15 15 13 12 11 11 11 10 10 9 9 10 11 12 13 10 8 9 9 4 12 18 18 18 17 15 15 16 17 18 20 20 20 21 22 22 24 27 28 26 23 25 28
27 30 33 32 27 24 26 28 28 26 26 26 25 24 24 23 23 23 24 22 19 17 17 18 18 18 19 19 19 19 18 18 17 17 16 17 17 16 16 15 15 14 13 12 11 10 9 10 10 9 9 8 7 7 7 8 11 10 7 6 7 5 4 12 15 14 15 16 16 17 17 16 17 19 19 19 20 21 23 24 25 23 22 23 25
27 31 30 26 24 26 29 30 28 26 26 24 22 22 23 24 24 23 22 19 17 18 19 19 19 18 18 18 18 18 17 16 16 15 15 16 15 15 14 13 13 12 11 11 10 9 8 8 8 8 8 7 7 7 7 7 10 10 8 5 5 5 2 7 11 9 11 14 15 16 17 16 16 18 18 18 19 19 20 22 23 24 24 24 25
28 27 24 24 26 29 29 28 27 26 24 22 21 21 22 23 23 21 18 18 20 20 20 19 19 19 18 18 17 16 15 14 13 13 13 14 13 13 13 13 12 12 11 10 9 9 8 8 8 8 8 7 7 7 7 8 9 9 8 6 5 4 1 4 6 6 8 11 12 14 15 15 16 18 18 18 19 19 18 19 22 25 26 25 25
25 24 26 28 29 27 25 26 26 25 22 21 21 21 21 21 21 19 18 19 20 19 19 19 20 20 18 17 16 15 14 14 13 12 12 12 12 12 12 12 12 11 10 10 9 9 8 8 8 8 7 7 7 7 6 7 7 7 6 4 3 2 2 4 5 5 6 7 8 11 13 13 16 18 17 17 18 18 17 18 22 27 28 26 25
23 26 29 29 26 24 24 25 25 23 22 21 21 21 20 20 19 18 19 19 18 18 19 20 20 19 17 16 15 15 15 14 13 12 12 12 11 11 11 11 11 10 9 9 9 9 9 8 8 8 8 8 7 7 7 6 6 6 4 2 2 2 3 4 4 5 7 7 7 9 11 12 14 16 15 13 13 14 15 14 17 21 23 22 22
26 29 28 25 23 24 25 24 24 22 22 21 20 19 19 18 17 17 17 17 17 18 18 19 18 17 16 15 16 16 15 14 14 13 13 12 12 12 12 12 11 9 9 9 9 9 9 9 8 8 8 8 8 7 7 7 7 7 6 3 1 0 2 3 4 7 9 8 8 9 10 10 11 12 11 9 9 11 12 12 13 14 15 16 17
29 28 26 24 24 24 24 24 23 22 21 20 18 18 19 18 17 16 16 16 18 17 17 17 16 16 15 16 16 16 15 14 14 14 14 14 13 13 13 13 13 12 11 12 12 12 12 11 11 11 10 8 8 8 9 8 8 8 8 6 4 2 2 4 6 8 9 8 6 6 7 8 9 8 8 7 8 9 9 10 11 12 12 14 15
28 25 24 25 25 24 24 23 23 22 21 18 16 17 17 18 18 17 16 17 17 16 15 15 16 16 16 16 16 15 15 14 14 13 13 14 14 13 12 12 12 12 12 13 13 13 13 12 11 10 10 10 10 11 10 9 8 8 7 7 6 5 4 5 8 9 8 6 6 7 8 9 10 10 9 9 9 10 10 10 11 12 11 12 14
Wind_Direction
19 17 16 16 15 14 14 13 14 15 15 12 10 7 359 353 350 321 248 224 219 217 218 216 211 211 212 210 210 210 211 212 211 213 213 215 217 216 215 213 209 208 209 208 204 199 194 186 186 198 197 189 191 192 191 192 189 187 183 180 179 179 181 184 177 162 155 156 156 165 171 188 199 189 183 188 184 184 184 183 183 179 178 179 178
21 21 19 19 19 18 18 18 18 18 17 16 15 11 8 6 6 2 347 275 229 220 219 219 216 214 215 216 215 213 213 212 213 215 215 216 216 214 213 210 206 206 207 208 206 202 197 189 191 204 203 196 196 196 195 194 190 188 182 180 182 182 184 184 177 170 171 176 171 166 170 190 207 201 195 193 188 187 185 184 184 183 183 181 180
22 22 19 19 20 19 20 19 19 19 17 18 17 14 12 9 8 6 4 357 299 234 224 222 221 218 218 219 218 217 219 218 218 218 217 217 216 215 213 210 210 210 208 208 207 204 200 195 198 207 207 203 199 195 195 194 191 189 185 183 183 186 191 188 184 183 183 182 175 178 186 177 191 202 201 200 193 189 188 188 187 187 184 182 181
20 21 19 18 19 19 20 19 18 19 18 18 16 15 13 10 12 12 8 6 4 340 258 236 229 224 220 220 217 216 221 222 224 225 223 221 220 220 218 215 215 214 211 210 209 207 204 199 201 205 207 206 201 194 194 193 192 191 189 187 184 185 192 192 193 193 192 184 178 198 196 186 209 192 181 188 188 186 191 190 189 189 186 183 182
22 21 17 17 19 18 19 18 18 19 18 17 16 16 14 9 12 16 16 12 9 9 357 303 250 229 221 220 219 217 215 214 216 217 219 222 223 223 223 222 219 216 216 215 212 209 207 204 203 205 205 205 201 195 193 194 194 193 192 191 188 188 190 191 196 199 202 198 194 203 189 201 228 163 153 167 180 184 191 190 190 190 188 185 184
26 23 18 17 17 16 17 17 18 18 16 15 15 15 15 13 11 13 17 18 16 13 8 359 334 260 226 220 217 216 214 211 214 216 217 221 223 223 225 225 222 219 218 217 214 211 211 209 207 207 204 203 202 197 192 193 195 195 194 194 193 193 192 191 194 199 206 209 211 224 232 249 225 151 149 152 170 183 188 187 193 191 191 192 188
28 24 20 18 17 15 16 15 16 15 14 13 14 15 15 15 14 12 14 16 17 17 14 11 6 354 322 253 230 223 220 219 222 225 222 221 223 222 223 225 223 221 219 217 216 214 214 214 211 210 207 205 203 198 194 193 195 199 200 198 196 197 197 197 193 191 202 212 217 228 241 251 214 159 167 154 151 184 190 188 198 193 194 197 195
28 23 20 20 18 16 15 14 13 12 12 12 13 14 15 15 15 15 15 14 13 15 18 19 16 9 2 348 312 272 256 250 241 234 229 226 228 225 224 226 226 224 221 219 219 217 216 216 215 214 212 209 205 200 198 195 195 200 202 200 199 199 200 202 197 191 196 206 212 221 229 226 211 191 198 188 164 169 178 188 196 192 197 200 199
26 23 20 19 18 17 15 12 11 11 11 11 11 11 13 14 14 15 15 14 11 11 13 16 18 17 13 6 355 339 319 303 285 258 242 234 232 226 222 225 226 226 224 222 222 221 219 218 217 217 216 214 209 205 203 199 197 200 201 200 199 199 202 205 203 198 198 199 201 209 215 214 214 217 223 218 202 178 168 181 182 182 198 206 202
22 20 19 17 15 14 12 10 10 11 11 11 10 10 11 11 12 13 13 12 10 9 9 9 11 13 14 12 5 355 343 328 318 299 274 249 238 231 225 225 226 227 228 225 224 224 222 220 218 219 221 220 216 212 208 204 200 201 204 205 203 200 201 205 206 204 201 200 198 199 202 204 207 213 216 215 216 211 190 179 177 178 191 202 201
20 17 17 15 12 10 10 10 9 10 11 12 10 9 9 9 8 9 9 9 8 7 7 5 5 7 7 8 6 0 353 343 331 313 301 287 264 247 237 235 231 230 229 227 225 225 224 222 220 221 223 223 221 218 214 207 200 201 206 208 206 202 201 204 206 207 204 203 202 198 198 200 201 203 204 202 206 213 204 179 179 183 189 195 195
18 15 15 13 10 8 9 9 9 10 11 11 10 9 8 8 7 5 4 4 4 4 5 3 1 2 1 1 360 358 355 351 343 327 311 299 289 274 253 243 238 234 232 230 228 226 225 224 223 222 222 222 222 222 221 216 208 204 204 207 206 202 202 203 204 206 206 204 203 202 201 202 204 204 200 199 202 207 208 198 178 178 190 195 186
15 10 8 7 7 5 4 6 7 9 9 9 9 9 7 6 5 4 2 0 359 360 1 360 358 357 356 356 355 352 351 348 343 336 326 312 297 285 271 257 248 242 237 235 233 229 227 226 225 224 223 223 223 224 225 224 218 210 205 205 205 203 204 204 203 205 207 206 202 201 203 203 205 205 202 201 204 204 206 209 179 169 182 188 176
8 3 0 3 4 0 0 3 3 3 4 6 6 6 4 3 3 1 358 358 357 357 356 355 354 352 351 352 352 350 348 344 340 335 330 325 314 297 281 268 259 250 244 240 238 235 232 230 229 228 228 228 225 224 225 227 226 221 213 208 206 207 207 206 207 206 207 207 205 202 204 204 203 204 204 203 203 200 201 205 185 167 179 181 170
356 353 352 359 2 360 360 1 2 1 1 2 2 3 2 360 359 357 354 354 355 355 354 352 349 347 346 348 349 348 344 340 338 334 331 326 320 309 295 280 268 259 250 244 241 238 235 233 232 231 232 233 231 229 229 230 230 230 227 221 215 213 210 207 208 208 208 209 208 206 206 206 204 202 204 205 204 202 201 200 188 167 176 184 170
349 347 344 352 357 358 0 1 1 0 0 1 358 357 358 357 355 353 350 351 352 352 351 348 344 342 342 345 346 345 342 339 335 331 329 325 319 312 303 293 282 272 262 252 246 241 238 235 233 232 233 233 233 233 233 233 232 231 232 231 228 222 217 212 208 208 210 211 210 209 207 206 206 204 205 207 206 204 203 199 190 174 169 182 178
344 346 343 343 348 351 356 358 358 358 357 358 356 354 353 351 350 349 347 348 350 349 346 343 341 339 339 342 343 342 339 336 332 329 326 324 321 316 309 302 293 284 275 265 256 248 243 238 234 233 233 232 232 231 232 233 233 232 231 231 232 231 228 222 213 209 210 210 211 212 209 207 208 207 207 208 205 204 202 200 194 184 179 183 186
337 343 341 336 339 346 352 352 353 354 352 353 353 351 349 347 346 345 343 344 345 344 342 339 338 337 337 339 340 340 337 332 328 326 325 323 320 317 314 310 302 292 282 273 265 256 249 243 237 235 234 233 233 232 231 232 232 233 233 232 232 232 232 229 224 219 214 211 213 214 211 209 210 208 207 207 204 204 202 200 198 192 189 194 195
336 340 341 335 333 338 344 344 346 349 348 348 347 344 343 342 342 341 338 337 336 337 339 337 337 337 336 336 335 334 333 330 326 324 323 320 318 316 314 311 308 301 291 279 270 261 254 247 241 237 235 233 233 233 232 231 230 232 233 233 232 230 230 231 227 225 223 219 216 215 212 211 211 209 208 207 204 204 203 201 201 198 195 199 201
336 335 338 335 330 333 339 336 339 343 342 342 340 338 337 337 336 336 335 333 332 333 335 337 338 338 335 333 332 331 328 327 325 323 320 317 316 314 312 312 311 307 301 292 280 268 259 252 246 242 238 235 233 232 231 228 227 229 232 233 233 231 231 233 231 229 228 225 222 219 215 212 210 208 207 206 205 205 205 203 203 202 198 199 201
335 331 334 332 327 330 333 328 331 336 337 339 338 335 335 335 334 333 331 331 331 331 332 332 335 336 335 333 330 328 327 325 323 321 318 316 315 314 313 312 311 307 302 296 288 279 269 260 252 246 242 238 235 233 231 227 224 226 229 231 233 232 231 233 234 232 230 228 226 223 221 216 211 207 205 205 206 206 205 203 202 201 198 197 198
336 330 327 328 326 326 327 324 326 330 333 336 335 333 332 332 332 331 329 328 327 327 327 326 327 329 331 331 330 328 326 323 321 318 316 315 314 314 313 311 308 306 302 297 291 283 276 268 259 251 245 241 238 236 234 229 225 225 226 227 229 230 231 232 232 231 230 229 227 225 224 220 215 210 207 206 207 206 203 202 201 199 197 197 197
337 331 324 323 324 322 323 323 321 323 327 330 329 327 325 323 324 325 324 324 324 323 322 321 320 322 324 327 328 326 323 322 320 316 313 313 313 312 311 309 305 304 301 297 293 287 280 273 265 258 251 245 241 238 236 232 230 229 227 225 225 225 227 229 230 230 230 228 227 226 225 222 217 213 209 207 206 206 204 203 202 200 198 197 196
335 331 324 319 319 319 320 321 318 317 321 324 324 322 319 318 318 319 318 319 319 318 319 318 317 317 317 319 324 324 322 321 320 317 313 310 309 309 308 306 303 301 299 297 293 289 283 276 269 263 257 252 246 241 238 234 232 232 231 229 228 225 225 226 228 230 230 228 226 225 224 223 219 214 211 207 205 205 204 203 202 201 199 196 194
332 329 322 315 316 318 319 319 316 315 318 320 320 318 317 316 317 319 317 315 314 312 313 314 314 314 314 315 319 321 322 322 320 316 311 307 306 305 304 303 301 299 298 297 294 291 286 279 272 267 262 257 252 247 243 238 235 234 233 233 232 230 228 227 228 229 230 229 227 226 225 223 219 216 213 208 206 206 204 203 202 199 197 194 192
330 328 322 316 315 317 319 317 315 315 317 318 318 316 316 315 315 316 316 313 310 307 307 308 309 311 312 314 317 318 320 321 319 314 310 305 302 301 302 301 300 298 295 295 294 290 287 282 277 272 268 262 258 252 248 244 241 238 236 235 234 232 231 230 229 229 229 229 228 227 226 224 220 218 216 213 210 207 205 203 201 199 196 194 191
328 325 320 316 313 315 316 313 311 313 315 316 317 316 315 314 314 315 315 314 311 305 302 301 302 305 306 309 313 315 316 316 315 312 308 304 300 297 298 300 301 299 296 292 291 288 285 282 279 275 271 267 263 257 252 249 247 244 241 238 235 234 233 233 232 231 230 229 229 229 228 226 223 221 220 218 213 209 206 204 202 199 196 193 191
323 320 317 315 310 310 311 309 309 310 311 313 315 315 314 314 314 315 313 313 311 305 299 295 296 299 300 305 309 311 312 310 308 308 305 302 301 299 298 299 299 298 295 292 289 287 284 281 279 275 272 269 266 260 256 252 250 249 248 244 239 236 235 235 235 234 232 231 231 230 229 228 227 226 224 221 217 212 207 205 203 199 195 192 189
319 316 316 315 310 309 310 310 309 308 309 312 313 315 315 314 314 315 312 310 308 304 297 292 292 296 299 304 306 307 309 307 301 300 301 300 302 302 301 299 296 294 294 292 288 285 283 280 277 275 271 267 264 261 258 254 252 251 251 249 245 241 238 237 236 236 235 233 232 231 231 230 230 229 228 225 222 218 212 207 204 199 194 191 188
316 316 317 317 314 312 311 310 308 307 307 310 311 313 314 314 316 316 313 308 304 301 297 292 291 295 299 302 304 305 307 304 296 295 299 300 302 303 301 298 296 292 291 290 287 283 281 278 275 274 272 267 263 261 259 256 255 253 252 252 251 247 242 239 238 238 238 236 235 235 234 234 233 232 230 227 224 222 218 214 208 202 196 192 188
315 317 317 315 312 311 310 309 309 307 306 306 308 310 312 314 315 315 313 309 303 299 296 290 290 295 298 300 302 302 301 300 297 295 297 299 301 302 300 298 296 294 291 289 286 282 279 276 273 271 271 269 267 266 264 261 258 256 255 255 255 252 247 242 240 240 240 239 239 238 238 238 235 233 231 228 225 223 221 218 214 209 204 200 194
317 318 315 312 310 309 309 308 306 302 300 302 306 308 311 313 315 314 313 310 304 299 295 290 291 294 295 297 298 297 297 299 298 295 294 297 300 301 299 297 295 294 294 291 287 283 280 277 274 270 269 269 269 269 269 266 262 259 257 256 253 251 248 245 242 240 241 241 240 240 239 237 235 232 230 227 224 223 221 218 215 213 210 207 204
316 315 313 311 311 310 308 305 301 300 301 305 308 308 310 313 313 313 313 311 307 301 295 292 290 290 290 291 292 292 295 297 296 294 295 296 298 298 296 296 295 295 295 292 289 286 282 279 275 272 271 271 272 273 273 269 265 263 261 257 252 249 247 245 243 241 241 241 240 239 237 235 233 230 227 224 221 220 220 217 214 213 211 209 209
314 314 315 314 313 313 312 310 310 312 312 311 309 308 309 311 310 309 311 313 308 299 290 287 286 285 286 287 287 289 292 293 295 296 296 295 295 294 293 294 294 295 294 293 291 288 285 282 279 277 274 274 276 277 275 271 269 267 263 259 255 252 248 245 243 242 242 240 239 237 234 232 230 227 224 221 218 215 214 212 210 209 209 208 207
315 316 318 320 321 322 322 321 321 320 316 311 308 307 308 309 308 309 310 310 304 294 286 284 284 282 284 286 288 289 291 292 295 295 293 293 292 291 291 292 293 293 293 292 291 289 287 285 283 281 278 277 280 281 277 273 272 270 267 262 259 256 252 247 243 242 241 241 240 237 233 230 227 224 222 219 216 212 209 207 206 205 206 205 204
323 328 332 334 334 333 329 325 322 318 315 311 308 307 308 307 309 311 309 306 303 296 289 288 288 287 288 289 291 291 290 291 294 293 290 290 289 288 290 291 291 291 291 291 290 290 288 286 285 284 281 281 285 285 279 276 274 272 270 265 260 258 254 247 242 240 240 240 239 236 233 229 226 223 221 218 215 211 206 203 203 203 203 202 202
331 336 339 337 333 328 322 317 314 311 309 309 308 308 310 310 310 310 306 304 303 298 291 290 292 293 294 293 292 291 290 290 291 290 289 288 288 288 289 290 291 291 291 291 291 291 289 287 286 284 282 283 288 290 284 279 278 276 272 267 262 257 250 242 236 237 238 238 237 234 230 226 223 222 220 216 213 209 204 202 201 200 199 199 199
333 334 332 329 324 318 313 311 313 312 312 315 316 316 315 311 308 309 308 305 301 295 290 291 295 296 296 294 290 288 288 289 288 288 288 288 287 287 288 289 290 290 290 291 292 291 290 288 286 286 285 283 287 292 290 285 283 280 275 273 267 253 240 232 226 229 234 233 232 230 226 222 220 220 218 212 208 207 203 200 198 195 192 194 196
327 328 329 327 324 320 320 322 324 321 321 322 321 317 314 310 308 308 307 301 295 290 292 299 301 300 296 292 288 287 288 289 288 286 286 286 286 287 287 288 288 289 290 291 292 292 292 291 290 291 290 286 288 295 295 291 290 286 282 280 269 246 228 220 214 217 225 227 226 224 222 219 218 218 215 206 202 205 203 199 196 193 190 193 197
320 321 324 325 324 324 326 325 321 319 319 318 315 312 309 308 307 305 303 302 301 304 308 306 303 299 295 291 291 292 290 290 290 288 286 285 285 286 287 288 289 289 289 289 291 293 294 294 292 291 290 288 291 296 297 297 295 291 292 289 266 235 218 212 208 209 213 217 219 218 216 215 214 214 211 203 199 204 204 200 195 193 193 195 196
315 316 321 322 320 316 314 313 314 316 316 313 311 309 308 307 305 303 306 313 316 314 309 305 302 299 296 295 295 294 291 289 288 287 285 285 284 285 287 288 289 289 288 290 291 292 293 293 292 290 290 291 293 295 298 301 299 297 308 307 270 229 217 210 203 202 204 208 212 213 213 212 211 209 208 203 200 203 204 202 198 199 200 198 195
311 311 318 320 315 309 309 312 316 316 314 313 311 309 308 306 304 304 308 312 311 307 305 306 305 302 299 297 295 292 291 289 287 284 283 284 284 285 286 287 288 288 287 288 290 290 290 291 293 292 290 291 295 298 300 302 302 303 313 321 303 235 221 216 205 198 199 203 207 210 213 214 211 205 202 203 202 200 201 204 204 201 198 196 195
311 310 317 318 313 310 312 315 317 317 317 316 312 309 307 305 304 307 309 307 304 305 308 309 306 301 297 296 294 293 292 290 287 283 282 283 284 285 286 286 287 287 287 288 290 289 288 291 295 296 295 295 300 305 305 303 304 307 313 324 331 287 226 219 213 207 205 206 207 209 215 218 212 203 198 202 203 196 196 204 204 193 187 192 195
312 313 317 317 315 315 316 315 315 317 317 316 312 309 307 306 307 309 309 306 308 314 316 311 305 299 296 296 295 294 292 289 287 286 285 285 285 285 287 288 288 286 286 289 291 291 292 295 298 300 301 303 306 311 316 309 301 302 314 322 327 331 237 216 217 216 210 207 206 207 214 220 213 201 195 199 201 197 196 200 197 184 180 188 193
316 316 319 322 322 319 315 314 316 318 317 315 312 309 308 308 309 310 311 316 324 324 317 310 305 301 299 296 294 292 289 287 287 285 285 286 288 289 289 290 291 289 287 289 291 293 294 295 298 302 303 308 314 311 316 319 308 304 314 311 296 314 288 209 212 217 214 212 213 212 215 217 209 199 196 197 200 201 197 195 192 186 182 186 191
321 321 325 327 322 316 313 314 318 319 317 314 313 311 310 311 313 315 322 330 329 322 315 312 308 305 302 298 295 293 293 292 290 288 287 287 289 291 291 293 294 292 288 290 292 294 295 293 293 298 298 302 315 315 313 323 323 315 315 313 295 297 283 181 186 195 207 213 217 217 215 210 200 197 197 198 201 204 200 193 190 188 186 186 190
323 325 327 323 317 315 316 317 317 318 317 316 315 314 313 315 318 324 332 332 327 321 318 315 310 307 305 303 301 301 303 303 299 296 294 292 290 291 291 292 295 295 296 298 297 295 298 297 296 301 303 301 307 313 312 320 330 329 327 335 323 269 178 130 123 148 177 190 200 207 208 200 193 193 196 198 200 202 201 196 190 188 188 188 189
325 324 322 319 316 317 319 317 316 317 317 316 317 317 319 322 326 329 331 329 326 323 319 314 311 309 309 309 310 311 311 309 305 303 300 297 295 295 293 291 293 295 296 300 302 301 301 303 303 303 306 304 303 309 311 309 317 323 323 351 1 256 199 141 113 135 153 159 170 182 187 187 186 188 189 189 187 187 190 189 184 183 187 189 189
323 321 319 319 319 320 320 317 315 317 317 317 319 322 326 329 327 326 327 326 325 324 320 317 315 315 315 316 317 315 313 310 308 305 302 299 295 293 290 287 286 286 283 285 291 293 295 303 307 303 303 304 301 307 316 313 307 304 293 280 304 282 181 167 168 169 164 160 161 165 169 172 175 177 176 168 160 165 173 177 175 174 177 180 179
320 318 318 319 321 321 319 315 315 317 316 316 322 328 331 330 324 321 323 323 324 324 321 321 321 319 318 319 316 313 312 310 309 308 306 305 301 294 287 281 279 281 282 280 278 278 279 283 284 279 278 284 289 298 310 311 303 298 290 275 260 236 174 169 183 182 174 169 164 161 162 166 166 167 167 159 150 152 160 169 176 177 175 176 178
318 318 318 321 321 320 318 316 317 317 314 317 325 329 331 332 328 323 319 320 323 322 319 320 322 318 315 315 312 309 310 309 308 309 309 309 308 305 299 290 283 282 285 284 282 279 277 282 289 283 268 265 277 286 290 293 295 294 286 276 266 244 198 179 183 183 179 176 177 175 172 172 174 178 181 179 173 169 168 173 183 189 191 190 190